Time,TemperatureF,DewpointF,PressureIn,WindDirection,WindDirectionDegrees,WindSpeedMPH,WindSpeedGustMPH,Humidity,HourlyPrecipIn,Conditions,Clouds,dailyrainin,SoftwareType,DateUTC
2013-04-16 00:00:00,59.0,54.0,30.26,SSE,157,4.0,6.0,84,0.00,,,0.00,Rainwise IP-100,2013-04-16 04:00:00,
2013-04-16 00:01:00,59.0,54.0,30.26,WSW,247,0.0,6.0,84,0.00,,,0.00,Rainwise IP-100,2013-04-16 04:01:00,
2013-04-16 00:06:00,59.0,54.0,30.26,NE,45,2.0,9.0,84,0.00,,,0.00,Rainwise IP-100,2013-04-16 04:06:00,
2013-04-16 00:11:00,59.0,54.0,30.25,ESE,112,3.0,10.0,84,0.00,,,0.00,Rainwise IP-100,2013-04-16 04:11:00,
2013-04-16 00:16:00,59.0,54.0,30.25,ENE,67,1.0,7.0,84,0.00,,,0.00,Rainwise IP-100,2013-04-16 04:16:00,
2013-04-16 00:21:00,60.0,55.0,30.25,SE,135,4.0,9.0,84,0.00,,,0.00,Rainwise IP-100,2013-04-16 04:21:00,
2013-04-16 00:24:00,60.0,55.0,30.26,North,360,0.0,9.0,84,0.00,,,0.00,Rainwise IP-100,2013-04-16 04:24:00,
2013-04-16 00:26:00,60.0,55.0,30.26,SSE,157,4.0,7.0,84,0.00,,,0.00,Rainwise IP-100,2013-04-16 04:26:00,
2013-04-16 00:31:00,60.0,55.0,30.26,ESE,112,1.0,7.0,84,0.00,,,0.00,Rainwise IP-100,2013-04-16 04:31:00,
2013-04-16 00:36:00,60.0,55.0,30.26,SSE,157,1.0,6.0,84,0.00,,,0.00,Rainwise IP-100,2013-04-16 04:36:00,
2013-04-16 00:41:00,60.0,55.0,30.26,SE,135,1.0,9.0,84,0.00,,,0.00,Rainwise IP-100,2013-04-16 04:41:00,
2013-04-16 00:46:00,60.0,54.5,30.26,ESE,112,1.0,7.0,83,0.00,,,0.00,Rainwise IP-100,2013-04-16 04:46:00,
2013-04-16 00:51:00,60.0,54.5,30.25,SE,135,6.0,9.0,83,0.00,,,0.00,Rainwise IP-100,2013-04-16 04:51:00,
2013-04-16 00:56:00,60.0,54.5,30.25,SE,135,5.0,7.0,83,0.00,,,0.00,Rainwise IP-100,2013-04-16 04:56:00,
2013-04-16 01:01:00,60.0,54.5,30.25,SE,135,6.0,6.0,83,0.00,,,0.00,Rainwise IP-100,2013-04-16 05:01:00,
2013-04-16 01:06:00,60.0,54.5,30.25,ESE,112,1.0,8.0,82,0.00,,,0.00,Rainwise IP-100,2013-04-16 05:06:00,
2013-04-16 01:11:00,60.0,54.5,30.25,ESE,112,2.0,7.0,82,0.00,,,0.00,Rainwise IP-100,2013-04-16 05:11:00,
2013-04-16 01:16:00,60.0,54.5,30.25,SE,135,4.0,7.0,82,0.00,,,0.00,Rainwise IP-100,2013-04-16 05:16:00,
2013-04-16 01:21:00,60.0,54.5,30.25,East,90,3.0,7.0,83,0.00,,,0.00,Rainwise IP-100,2013-04-16 05:21:00,
2013-04-16 01:26:00,60.0,54.5,30.25,SE,135,2.0,6.0,83,0.00,,,0.00,Rainwise IP-100,2013-04-16 05:26:00,
2013-04-16 01:31:00,60.0,54.5,30.25,ESE,112,4.0,6.0,83,0.00,,,0.00,Rainwise IP-100,2013-04-16 05:31:00,
2013-04-16 01:36:00,59.0,54.0,30.25,ESE,112,4.0,6.0,83,0.00,,,0.00,Rainwise IP-100,2013-04-16 05:36:00,
2013-04-16 01:41:00,60.0,54.5,30.25,SSE,157,1.0,7.0,83,0.00,,,0.00,Rainwise IP-100,2013-04-16 05:41:00,
2013-04-16 01:46:00,59.0,54.0,30.25,SSE,157,3.0,6.0,83,0.00,,,0.00,Rainwise IP-100,2013-04-16 05:46:00,
2013-04-16 01:51:00,59.0,54.0,30.24,ESE,112,2.0,7.0,83,0.00,,,0.00,Rainwise IP-100,2013-04-16 05:51:00,
2013-04-16 01:56:00,59.0,54.0,30.25,ESE,112,0.0,7.0,83,0.00,,,0.00,Rainwise IP-100,2013-04-16 05:56:00,
2013-04-16 02:01:00,59.0,54.0,30.24,ESE,112,2.0,5.0,84,0.00,,,0.00,Rainwise IP-100,2013-04-16 06:01:00,
2013-04-16 02:06:00,59.0,54.0,30.25,SE,135,4.0,7.0,84,0.00,,,0.00,Rainwise IP-100,2013-04-16 06:06:00,
2013-04-16 02:11:00,59.0,54.0,30.24,ESE,112,1.0,6.0,84,0.00,,,0.00,Rainwise IP-100,2013-04-16 06:11:00,
2013-04-16 02:16:00,59.0,54.0,30.24,SE,135,1.0,6.0,84,0.00,,,0.00,Rainwise IP-100,2013-04-16 06:16:00,
2013-04-16 02:21:00,59.0,54.0,30.24,ESE,112,2.0,4.0,84,0.00,,,0.00,Rainwise IP-100,2013-04-16 06:21:00,
2013-04-16 02:26:00,59.0,54.0,30.24,SE,135,2.0,5.0,84,0.00,,,0.00,Rainwise IP-100,2013-04-16 06:26:00,
2013-04-16 02:31:00,59.0,54.0,30.24,SE,135,2.0,6.0,84,0.00,,,0.00,Rainwise IP-100,2013-04-16 06:31:00,
2013-04-16 02:36:00,59.0,54.0,30.24,SE,135,6.0,7.0,84,0.00,,,0.00,Rainwise IP-100,2013-04-16 06:36:00,
2013-04-16 02:41:00,59.0,54.0,30.24,ESE,112,0.0,6.0,84,0.00,,,0.00,Rainwise IP-100,2013-04-16 06:41:00,
2013-04-16 02:46:00,59.0,54.0,30.24,SSE,157,0.0,5.0,84,0.00,,,0.00,Rainwise IP-100,2013-04-16 06:46:00,
2013-04-16 02:51:00,59.0,54.5,30.24,ESE,112,3.0,6.0,85,0.00,,,0.00,Rainwise IP-100,2013-04-16 06:51:00,
2013-04-16 02:56:00,59.0,54.5,30.24,ESE,112,1.0,7.0,85,0.00,,,0.00,Rainwise IP-100,2013-04-16 06:56:00,
2013-04-16 03:01:00,59.0,54.5,30.24,ESE,112,3.0,4.0,85,0.00,,,0.00,Rainwise IP-100,2013-04-16 07:01:00,
2013-04-16 03:06:00,59.0,54.5,30.24,ESE,112,0.0,4.0,85,0.00,,,0.00,Rainwise IP-100,2013-04-16 07:06:00,
2013-04-16 03:11:00,59.0,54.5,30.24,SE,135,2.0,6.0,85,0.00,,,0.00,Rainwise IP-100,2013-04-16 07:11:00,
2013-04-16 03:16:00,59.0,54.5,30.25,SE,135,4.0,6.0,85,0.00,,,0.00,Rainwise IP-100,2013-04-16 07:16:00,
2013-04-16 03:21:00,59.0,54.5,30.25,SE,135,1.0,5.0,85,0.00,,,0.00,Rainwise IP-100,2013-04-16 07:21:00,
2013-04-16 03:26:00,59.0,54.5,30.25,SE,135,2.0,6.0,86,0.00,,,0.00,Rainwise IP-100,2013-04-16 07:26:00,
2013-04-16 03:31:00,59.0,55.0,30.25,ESE,112,1.0,4.0,87,0.00,,,0.00,Rainwise IP-100,2013-04-16 07:31:00,
2013-04-16 03:36:00,58.0,54.0,30.25,SSE,157,1.0,3.0,86,0.00,,,0.00,Rainwise IP-100,2013-04-16 07:36:00,
2013-04-16 03:41:00,58.0,54.0,30.25,East,90,5.0,6.0,86,0.00,,,0.00,Rainwise IP-100,2013-04-16 07:41:00,
2013-04-16 03:46:00,58.0,54.5,30.25,East,90,2.0,6.0,87,0.00,,,0.00,Rainwise IP-100,2013-04-16 07:46:00,
2013-04-16 03:51:00,58.0,54.5,30.25,SE,135,0.0,7.0,87,0.00,,,0.00,Rainwise IP-100,2013-04-16 07:51:00,
2013-04-16 03:56:00,58.0,54.5,30.25,ENE,67,1.0,6.0,87,0.00,,,0.00,Rainwise IP-100,2013-04-16 07:56:00,
2013-04-16 04:01:00,58.0,54.0,30.25,ESE,112,2.0,6.0,86,0.00,,,0.00,Rainwise IP-100,2013-04-16 08:01:00,
2013-04-16 04:06:00,59.0,55.0,30.25,ESE,112,3.0,9.0,87,0.00,,,0.00,Rainwise IP-100,2013-04-16 08:06:00,
2013-04-16 04:11:00,59.0,55.0,30.25,ESE,112,2.0,6.0,87,0.00,,,0.00,Rainwise IP-100,2013-04-16 08:11:00,
2013-04-16 04:16:00,59.0,55.0,30.25,ESE,112,4.0,6.0,87,0.00,,,0.00,Rainwise IP-100,2013-04-16 08:16:00,
2013-04-16 04:21:00,59.0,54.5,30.25,ESE,112,3.0,6.0,86,0.00,,,0.00,Rainwise IP-100,2013-04-16 08:21:00,
2013-04-16 04:26:00,59.0,54.5,30.25,ESE,112,4.0,6.0,86,0.00,,,0.00,Rainwise IP-100,2013-04-16 08:26:00,
2013-04-16 04:31:00,59.0,55.0,30.25,SSE,157,0.0,6.0,87,0.00,,,0.00,Rainwise IP-100,2013-04-16 08:31:00,
2013-04-16 04:36:00,59.0,55.0,30.26,East,90,2.0,6.0,87,0.00,,,0.00,Rainwise IP-100,2013-04-16 08:36:00,
2013-04-16 04:41:00,59.0,55.0,30.25,SSE,157,4.0,6.0,87,0.00,,,0.00,Rainwise IP-100,2013-04-16 08:41:00,
2013-04-16 04:46:00,59.0,55.0,30.25,ESE,112,2.0,6.0,87,0.00,,,0.00,Rainwise IP-100,2013-04-16 08:46:00,
2013-04-16 04:51:00,59.0,55.0,30.25,ESE,112,3.0,6.0,88,0.00,,,0.00,Rainwise IP-100,2013-04-16 08:51:00,
2013-04-16 04:56:00,59.0,55.0,30.25,SE,135,1.0,6.0,88,0.00,,,0.00,Rainwise IP-100,2013-04-16 08:56:00,
2013-04-16 05:01:00,59.0,55.0,30.25,ESE,112,1.0,5.0,88,0.00,,,0.00,Rainwise IP-100,2013-04-16 09:01:00,
2013-04-16 05:06:00,59.0,56.0,30.25,SE,135,1.0,6.0,89,0.00,,,0.00,Rainwise IP-100,2013-04-16 09:06:00,
2013-04-16 05:11:00,59.0,56.0,30.25,NE,45,1.0,6.0,89,0.00,,,0.00,Rainwise IP-100,2013-04-16 09:11:00,
2013-04-16 05:16:00,58.0,54.5,30.25,SE,135,1.0,5.0,88,0.00,,,0.00,Rainwise IP-100,2013-04-16 09:16:00,
2013-04-16 05:21:00,58.0,54.5,30.25,SSW,202,2.0,4.0,88,0.00,,,0.00,Rainwise IP-100,2013-04-16 09:21:00,
2013-04-16 05:26:00,58.0,54.5,30.25,ESE,112,3.0,6.0,88,0.00,,,0.00,Rainwise IP-100,2013-04-16 09:26:00,
2013-04-16 05:31:00,58.0,54.5,30.25,ESE,112,0.0,5.0,88,0.00,,,0.00,Rainwise IP-100,2013-04-16 09:31:00,
2013-04-16 05:36:00,58.0,55.0,30.25,SE,135,6.0,7.0,89,0.00,,,0.00,Rainwise IP-100,2013-04-16 09:36:00,
2013-04-16 05:41:00,58.0,54.5,30.25,SE,135,0.0,6.0,88,0.00,,,0.00,Rainwise IP-100,2013-04-16 09:41:00,
2013-04-16 05:46:00,58.0,55.0,30.25,ESE,112,0.0,3.0,89,0.00,,,0.00,Rainwise IP-100,2013-04-16 09:46:00,
2013-04-16 05:51:00,59.0,56.0,30.25,SSE,157,2.0,5.0,90,0.00,,,0.00,Rainwise IP-100,2013-04-16 09:51:00,
2013-04-16 05:56:00,59.0,56.0,30.26,SE,135,2.0,5.0,90,0.00,,,0.00,Rainwise IP-100,2013-04-16 09:56:00,
2013-04-16 06:01:00,59.0,56.0,30.25,SSE,157,0.0,5.0,89,0.00,,,0.00,Rainwise IP-100,2013-04-16 10:01:00,
2013-04-16 06:06:00,59.0,56.0,30.25,SE,135,1.0,6.0,89,0.00,,,0.00,Rainwise IP-100,2013-04-16 10:06:00,
2013-04-16 06:11:00,59.0,56.0,30.25,SE,135,0.0,3.0,89,0.00,,,0.00,Rainwise IP-100,2013-04-16 10:11:00,
2013-04-16 06:16:00,59.0,56.0,30.26,ESE,112,2.0,3.0,89,0.00,,,0.00,Rainwise IP-100,2013-04-16 10:16:00,
2013-04-16 06:21:00,59.0,56.0,30.25,ESE,112,0.0,2.0,89,0.00,,,0.00,Rainwise IP-100,2013-04-16 10:21:00,
2013-04-16 06:26:00,59.0,56.0,30.26,SSE,157,1.0,3.0,90,0.00,,,0.00,Rainwise IP-100,2013-04-16 10:26:00,
2013-04-16 06:31:00,59.0,56.0,30.26,West,270,1.0,4.0,89,0.00,,,0.00,Rainwise IP-100,2013-04-16 10:31:00,
2013-04-16 06:36:00,59.0,56.0,30.26,SE,135,5.0,6.0,89,0.00,,,0.00,Rainwise IP-100,2013-04-16 10:36:00,
2013-04-16 06:40:00,59.0,56.0,30.27,East,90,2.0,6.0,89,0.00,,,0.00,Rainwise IP-100,2013-04-16 10:40:00,
2013-04-16 06:45:00,59.0,55.0,30.27,East,90,0.0,6.0,88,0.00,,,0.00,Rainwise IP-100,2013-04-16 10:45:00,
2013-04-16 06:46:00,59.0,55.0,30.27,SE,135,1.0,5.0,88,0.00,,,0.00,Rainwise IP-100,2013-04-16 10:46:00,
2013-04-16 06:51:00,60.0,56.0,30.27,East,90,3.0,6.0,87,0.00,,,0.00,Rainwise IP-100,2013-04-16 10:51:00,
2013-04-16 06:56:00,60.0,56.0,30.27,ESE,112,1.0,6.0,87,0.00,,,0.00,Rainwise IP-100,2013-04-16 10:56:00,
2013-04-16 07:01:00,60.0,56.0,30.27,ESE,112,0.0,4.0,87,0.00,,,0.00,Rainwise IP-100,2013-04-16 11:01:00,
2013-04-16 07:06:00,60.0,56.0,30.27,ESE,112,0.0,5.0,87,0.00,,,0.00,Rainwise IP-100,2013-04-16 11:06:00,
2013-04-16 07:11:00,60.0,56.0,30.27,ESE,112,2.0,5.0,86,0.00,,,0.00,Rainwise IP-100,2013-04-16 11:11:00,
2013-04-16 07:16:00,60.0,56.0,30.27,East,90,5.0,6.0,86,0.00,,,0.00,Rainwise IP-100,2013-04-16 11:16:00,
2013-04-16 07:21:00,60.0,55.0,30.27,ESE,112,2.0,7.0,85,0.00,,,0.00,Rainwise IP-100,2013-04-16 11:21:00,
2013-04-16 07:26:00,60.0,55.0,30.28,ESE,112,3.0,5.0,85,0.00,,,0.00,Rainwise IP-100,2013-04-16 11:26:00,
2013-04-16 07:31:00,61.0,56.0,30.28,ESE,112,2.0,7.0,84,0.00,,,0.00,Rainwise IP-100,2013-04-16 11:31:00,
2013-04-16 07:36:00,61.0,56.0,30.28,ESE,112,2.0,6.0,84,0.00,,,0.00,Rainwise IP-100,2013-04-16 11:36:00,
2013-04-16 07:41:00,61.0,56.0,30.29,SE,135,3.0,7.0,84,0.00,,,0.00,Rainwise IP-100,2013-04-16 11:41:00,
2013-04-16 07:46:00,61.0,56.0,30.29,SSE,157,2.0,6.0,83,0.00,,,0.00,Rainwise IP-100,2013-04-16 11:46:00,
2013-04-16 07:51:00,61.0,56.0,30.29,East,90,0.0,5.0,83,0.00,,,0.00,Rainwise IP-100,2013-04-16 11:51:00,
2013-04-16 07:56:00,61.0,56.0,30.29,South,180,1.0,5.0,83,0.00,,,0.00,Rainwise IP-100,2013-04-16 11:56:00,
2013-04-16 08:01:00,61.0,56.0,30.29,SSE,157,2.0,5.0,83,0.00,,,0.00,Rainwise IP-100,2013-04-16 12:01:00,
2013-04-16 08:06:00,61.0,56.0,30.29,SW,225,0.0,7.0,83,0.00,,,0.00,Rainwise IP-100,2013-04-16 12:06:00,
2013-04-16 08:11:00,62.0,56.5,30.29,ESE,112,4.0,7.0,82,0.00,,,0.00,Rainwise IP-100,2013-04-16 12:11:00,
2013-04-16 08:16:00,62.0,56.0,30.29,SE,135,1.0,6.0,81,0.00,,,0.00,Rainwise IP-100,2013-04-16 12:16:00,
2013-04-16 08:21:00,62.0,56.0,30.29,SSE,157,3.0,7.0,80,0.00,,,0.00,Rainwise IP-100,2013-04-16 12:21:00,
2013-04-16 08:26:00,63.0,56.5,30.29,SSE,157,3.0,7.0,80,0.00,,,0.00,Rainwise IP-100,2013-04-16 12:26:00,
2013-04-16 08:31:00,63.0,56.5,30.29,SE,135,3.0,10.0,79,0.00,,,0.00,Rainwise IP-100,2013-04-16 12:31:00,
2013-04-16 08:36:00,63.0,56.5,30.29,SE,135,3.0,9.0,79,0.00,,,0.00,Rainwise IP-100,2013-04-16 12:36:00,
2013-04-16 08:38:00,63.0,56.5,30.29,ESE,112,2.0,6.0,79,0.00,,,0.00,Rainwise IP-100,2013-04-16 12:38:00,
2013-04-16 08:41:00,63.0,56.0,30.30,East,90,3.0,8.0,78,0.00,,,0.00,Rainwise IP-100,2013-04-16 12:41:00,
2013-04-16 08:44:00,64.0,56.5,30.29,SE,135,2.0,8.0,77,0.00,,,0.00,Rainwise IP-100,2013-04-16 12:44:00,
2013-04-16 08:46:00,64.0,56.5,30.29,ESE,112,5.0,7.0,76,0.00,,,0.00,Rainwise IP-100,2013-04-16 12:46:00,
2013-04-16 08:51:00,65.0,57.0,30.29,SE,135,1.0,9.0,75,0.00,,,0.00,Rainwise IP-100,2013-04-16 12:51:00,
2013-04-16 08:56:00,66.0,57.0,30.29,NE,45,3.0,8.0,73,0.00,,,0.00,Rainwise IP-100,2013-04-16 12:56:00,
2013-04-16 09:01:00,67.0,57.5,30.29,SE,135,5.0,8.0,71,0.00,,,0.00,Rainwise IP-100,2013-04-16 13:01:00,
2013-04-16 09:06:00,67.0,57.0,30.29,South,180,5.0,15.0,70,0.00,,,0.00,Rainwise IP-100,2013-04-16 13:06:00,
2013-04-16 09:11:00,68.0,57.0,30.29,SSE,157,1.0,10.0,68,0.00,,,0.00,Rainwise IP-100,2013-04-16 13:11:00,
2013-04-16 09:16:00,68.0,56.5,30.29,SE,135,6.0,10.0,66,0.00,,,0.00,Rainwise IP-100,2013-04-16 13:16:00,
2013-04-16 09:21:00,68.0,56.5,30.29,East,90,10.0,10.0,66,0.00,,,0.00,Rainwise IP-100,2013-04-16 13:21:00,
2013-04-16 09:26:00,68.0,56.5,30.29,East,90,9.0,12.0,66,0.00,,,0.00,Rainwise IP-100,2013-04-16 13:26:00,
2013-04-16 09:31:00,67.0,55.0,30.29,SSE,157,7.0,16.0,65,0.00,,,0.00,Rainwise IP-100,2013-04-16 13:31:00,
2013-04-16 09:36:00,68.0,56.5,30.29,ESE,112,8.0,11.0,67,0.00,,,0.00,Rainwise IP-100,2013-04-16 13:36:00,
2013-04-16 09:39:00,67.0,56.0,30.30,SE,135,5.0,10.0,67,0.00,,,0.00,Rainwise IP-100,2013-04-16 13:39:00,
2013-04-16 09:41:00,67.0,55.0,30.30,SE,135,5.0,10.0,66,0.00,,,0.00,Rainwise IP-100,2013-04-16 13:41:00,
2013-04-16 09:46:00,67.0,56.0,30.30,SSE,157,1.0,9.0,67,0.00,,,0.00,Rainwise IP-100,2013-04-16 13:46:00,
2013-04-16 09:51:00,67.0,55.0,30.30,WNW,292,6.0,10.0,66,0.00,,,0.00,Rainwise IP-100,2013-04-16 13:51:00,
2013-04-16 09:56:00,67.0,56.0,30.30,SSE,157,3.0,9.0,67,0.00,,,0.00,Rainwise IP-100,2013-04-16 13:56:00,
2013-04-16 10:01:00,67.0,56.0,30.30,SSE,157,4.0,9.0,67,0.00,,,0.00,Rainwise IP-100,2013-04-16 14:01:00,
2013-04-16 10:06:00,67.0,56.0,30.30,SE,135,6.0,10.0,67,0.00,,,0.00,Rainwise IP-100,2013-04-16 14:06:00,
2013-04-16 10:11:00,67.0,55.0,30.30,SSE,157,2.0,11.0,66,0.00,,,0.00,Rainwise IP-100,2013-04-16 14:11:00,
2013-04-16 10:16:00,67.0,56.0,30.30,South,180,7.0,11.0,67,0.00,,,0.00,Rainwise IP-100,2013-04-16 14:16:00,
2013-04-16 10:21:00,67.0,55.0,30.31,NNE,22,6.0,10.0,65,0.00,,,0.00,Rainwise IP-100,2013-04-16 14:21:00,
2013-04-16 10:26:00,67.0,55.0,30.31,SE,135,5.0,13.0,66,0.00,,,0.00,Rainwise IP-100,2013-04-16 14:26:00,
2013-04-16 10:31:00,67.0,56.0,30.31,ESE,112,2.0,10.0,67,0.00,,,0.00,Rainwise IP-100,2013-04-16 14:31:00,
2013-04-16 10:36:00,68.0,57.0,30.31,SW,225,5.0,8.0,68,0.00,,,0.00,Rainwise IP-100,2013-04-16 14:36:00,
2013-04-16 10:41:00,68.0,56.5,30.31,SE,135,4.0,12.0,66,0.00,,,0.00,Rainwise IP-100,2013-04-16 14:41:00,
2013-04-16 10:46:00,68.0,56.5,30.31,SE,135,4.0,10.0,67,0.00,,,0.00,Rainwise IP-100,2013-04-16 14:46:00,
2013-04-16 10:51:00,68.0,56.0,30.31,SE,135,3.0,7.0,65,0.00,,,0.00,Rainwise IP-100,2013-04-16 14:51:00,
2013-04-16 10:56:00,69.0,56.5,30.31,ENE,67,6.0,9.0,65,0.00,,,0.00,Rainwise IP-100,2013-04-16 14:56:00,
2013-04-16 11:01:00,69.0,56.0,30.31,South,180,3.0,12.0,64,0.00,,,0.00,Rainwise IP-100,2013-04-16 15:01:00,
2013-04-16 11:06:00,69.0,56.0,30.31,SSW,202,2.0,10.0,64,0.00,,,0.00,Rainwise IP-100,2013-04-16 15:06:00,
2013-04-16 11:11:00,70.0,57.5,30.31,East,90,3.0,11.0,65,0.00,,,0.00,Rainwise IP-100,2013-04-16 15:11:00,
2013-04-16 11:16:00,70.0,56.5,30.31,ESE,112,6.0,8.0,62,0.00,,,0.00,Rainwise IP-100,2013-04-16 15:16:00,
2013-04-16 11:21:00,70.0,57.0,30.31,SSE,157,1.0,11.0,63,0.00,,,0.00,Rainwise IP-100,2013-04-16 15:21:00,
2013-04-16 11:26:00,70.0,56.0,30.31,East,90,4.0,10.0,61,0.00,,,0.00,Rainwise IP-100,2013-04-16 15:26:00,
2013-04-16 11:31:00,70.0,56.5,30.30,SSE,157,6.0,9.0,62,0.00,,,0.00,Rainwise IP-100,2013-04-16 15:31:00,
2013-04-16 11:36:00,70.0,56.0,30.30,SSE,157,1.0,10.0,61,0.00,,,0.00,Rainwise IP-100,2013-04-16 15:36:00,
2013-04-16 11:41:00,71.0,56.5,30.30,South,180,2.0,10.0,61,0.00,,,0.00,Rainwise IP-100,2013-04-16 15:41:00,
2013-04-16 11:42:00,71.0,56.5,30.30,South,180,1.0,10.0,61,0.00,,,0.00,Rainwise IP-100,2013-04-16 15:42:00,
2013-04-16 11:46:00,71.0,56.5,30.30,South,180,9.0,9.0,61,0.00,,,0.00,Rainwise IP-100,2013-04-16 15:46:00,
2013-04-16 11:51:00,71.0,56.5,30.30,WSW,247,2.0,10.0,60,0.00,,,0.00,Rainwise IP-100,2013-04-16 15:51:00,
2013-04-16 11:56:00,71.0,56.5,30.30,SSE,157,5.0,10.0,60,0.00,,,0.00,Rainwise IP-100,2013-04-16 15:56:00,
2013-04-16 12:01:00,71.0,56.5,30.30,SSE,157,4.0,11.0,60,0.00,,,0.00,Rainwise IP-100,2013-04-16 16:01:00,
2013-04-16 12:06:00,71.0,56.5,30.30,ENE,67,5.0,10.0,60,0.00,,,0.00,Rainwise IP-100,2013-04-16 16:06:00,
2013-04-16 12:11:00,71.0,56.5,30.30,SE,135,1.0,10.0,60,0.00,,,0.00,Rainwise IP-100,2013-04-16 16:11:00,
2013-04-16 12:16:00,72.0,57.0,30.30,SE,135,6.0,8.0,60,0.00,,,0.00,Rainwise IP-100,2013-04-16 16:16:00,
2013-04-16 12:21:00,71.0,56.5,30.30,ESE,112,8.0,9.0,60,0.00,,,0.00,Rainwise IP-100,2013-04-16 16:21:00,
2013-04-16 12:26:00,72.0,57.0,30.30,SSE,157,6.0,9.0,60,0.00,,,0.00,Rainwise IP-100,2013-04-16 16:26:00,
2013-04-16 12:31:00,72.0,57.0,30.29,SSW,202,2.0,13.0,60,0.00,,,0.00,Rainwise IP-100,2013-04-16 16:31:00,
2013-04-16 12:36:00,72.0,56.5,30.29,SE,135,6.0,9.0,58,0.00,,,0.00,Rainwise IP-100,2013-04-16 16:36:00,
2013-04-16 12:39:00,72.0,57.0,30.29,SE,135,4.0,11.0,60,0.00,,,0.00,Rainwise IP-100,2013-04-16 16:39:00,
2013-04-16 12:41:00,72.0,56.5,30.29,South,180,5.0,11.0,58,0.00,,,0.00,Rainwise IP-100,2013-04-16 16:41:00,
2013-04-16 12:46:00,73.0,57.0,30.29,SSE,157,6.0,10.0,57,0.00,,,0.00,Rainwise IP-100,2013-04-16 16:46:00,
2013-04-16 12:51:00,72.0,56.5,30.29,SE,135,6.0,11.0,58,0.00,,,0.00,Rainwise IP-100,2013-04-16 16:51:00,
2013-04-16 12:56:00,73.0,56.5,30.29,SE,135,4.0,10.0,56,0.00,,,0.00,Rainwise IP-100,2013-04-16 16:56:00,
2013-04-16 13:01:00,72.0,57.0,30.29,East,90,6.0,9.0,60,0.00,,,0.00,Rainwise IP-100,2013-04-16 17:01:00,
2013-04-16 13:06:00,73.0,57.5,30.29,SSE,157,6.0,9.0,58,0.00,,,0.00,Rainwise IP-100,2013-04-16 17:06:00,
2013-04-16 13:11:00,73.0,57.5,30.29,SSE,157,4.0,9.0,59,0.00,,,0.00,Rainwise IP-100,2013-04-16 17:11:00,
2013-04-16 13:16:00,73.0,57.0,30.29,NE,45,3.0,10.0,57,0.00,,,0.00,Rainwise IP-100,2013-04-16 17:16:00,
2013-04-16 13:21:00,73.0,56.5,30.29,SSE,157,6.0,9.0,56,0.00,,,0.00,Rainwise IP-100,2013-04-16 17:21:00,
2013-04-16 13:26:00,73.0,57.5,30.28,SW,225,1.0,9.0,58,0.00,,,0.00,Rainwise IP-100,2013-04-16 17:26:00,
2013-04-16 13:31:00,73.0,56.5,30.28,East,90,2.0,12.0,56,0.00,,,0.00,Rainwise IP-100,2013-04-16 17:31:00,
2013-04-16 13:35:00,73.0,57.5,30.28,SW,225,2.0,10.0,58,0.00,,,0.00,Rainwise IP-100,2013-04-16 17:35:00,
2013-04-16 13:36:00,73.0,57.5,30.28,South,180,5.0,9.0,58,0.00,,,0.00,Rainwise IP-100,2013-04-16 17:36:00,
2013-04-16 13:41:00,74.0,57.5,30.28,SW,225,1.0,10.0,56,0.00,,,0.00,Rainwise IP-100,2013-04-16 17:41:00,
2013-04-16 13:46:00,74.0,57.5,30.28,South,180,2.0,10.0,57,0.00,,,0.00,Rainwise IP-100,2013-04-16 17:46:00,
2013-04-16 13:51:00,74.0,57.5,30.27,SSE,157,3.0,9.0,56,0.00,,,0.00,Rainwise IP-100,2013-04-16 17:51:00,
2013-04-16 13:56:00,74.0,57.0,30.28,SE,135,7.0,7.0,55,0.00,,,0.00,Rainwise IP-100,2013-04-16 17:56:00,
2013-04-16 14:01:00,74.0,57.0,30.28,SSE,157,7.0,7.0,55,0.00,,,0.00,Rainwise IP-100,2013-04-16 18:01:00,
2013-04-16 14:06:00,74.0,57.5,30.27,ESE,112,7.0,9.0,56,0.00,,,0.00,Rainwise IP-100,2013-04-16 18:06:00,
2013-04-16 14:11:00,74.0,57.0,30.27,East,90,2.0,7.0,55,0.00,,,0.00,Rainwise IP-100,2013-04-16 18:11:00,
2013-04-16 14:16:00,75.0,58.0,30.27,SSW,202,2.0,6.0,56,0.00,,,0.00,Rainwise IP-100,2013-04-16 18:16:00,
2013-04-16 14:21:00,75.0,57.5,30.27,SE,135,4.0,7.0,55,0.00,,,0.00,Rainwise IP-100,2013-04-16 18:21:00,
2013-04-16 14:26:00,75.0,57.5,30.27,SE,135,5.0,12.0,54,0.00,,,0.00,Rainwise IP-100,2013-04-16 18:26:00,
2013-04-16 14:31:00,74.0,57.5,30.27,ESE,112,2.0,10.0,56,0.00,,,0.00,Rainwise IP-100,2013-04-16 18:31:00,
2013-04-16 14:36:00,74.0,57.5,30.27,ENE,67,3.0,9.0,56,0.00,,,0.00,Rainwise IP-100,2013-04-16 18:36:00,
2013-04-16 14:41:00,74.0,58.0,30.27,SE,135,7.0,8.0,58,0.00,,,0.00,Rainwise IP-100,2013-04-16 18:41:00,
2013-04-16 14:46:00,74.0,57.5,30.27,SSE,157,5.0,8.0,57,0.00,,,0.00,Rainwise IP-100,2013-04-16 18:46:00,
2013-04-16 14:51:00,74.0,57.5,30.27,SE,135,0.0,9.0,56,0.00,,,0.00,Rainwise IP-100,2013-04-16 18:51:00,
2013-04-16 14:56:00,74.0,57.5,30.27,SSW,202,2.0,9.0,56,0.00,,,0.00,Rainwise IP-100,2013-04-16 18:56:00,
2013-04-16 15:01:00,74.0,57.5,30.27,South,180,12.0,12.0,56,0.00,,,0.00,Rainwise IP-100,2013-04-16 19:01:00,
2013-04-16 15:06:00,73.0,57.0,30.26,SE,135,9.0,12.0,57,0.00,,,0.00,Rainwise IP-100,2013-04-16 19:06:00,
2013-04-16 15:11:00,73.0,57.0,30.26,SSE,157,4.0,9.0,57,0.00,,,0.00,Rainwise IP-100,2013-04-16 19:11:00,
2013-04-16 15:16:00,73.0,57.5,30.26,SSE,157,7.0,10.0,58,0.00,,,0.00,Rainwise IP-100,2013-04-16 19:16:00,
2013-04-16 15:21:00,73.0,57.5,30.25,WSW,247,3.0,9.0,58,0.00,,,0.00,Rainwise IP-100,2013-04-16 19:21:00,
2013-04-16 15:26:00,73.0,57.5,30.25,SSE,157,4.0,9.0,58,0.00,,,0.00,Rainwise IP-100,2013-04-16 19:26:00,
2013-04-16 15:28:00,73.0,57.5,30.25,SSE,157,3.0,9.0,59,0.00,,,0.00,Rainwise IP-100,2013-04-16 19:28:00,
2013-04-16 15:31:00,72.0,56.5,30.25,ESE,112,4.0,9.0,58,0.00,,,0.00,Rainwise IP-100,2013-04-16 19:31:00,
2013-04-16 15:36:00,72.0,57.0,30.25,East,90,4.0,9.0,60,0.00,,,0.00,Rainwise IP-100,2013-04-16 19:36:00,
2013-04-16 15:41:00,72.0,56.5,30.25,SE,135,5.0,9.0,58,0.00,,,0.00,Rainwise IP-100,2013-04-16 19:41:00,
2013-04-16 15:46:00,72.0,57.0,30.25,SE,135,8.0,9.0,59,0.00,,,0.00,Rainwise IP-100,2013-04-16 19:46:00,
2013-04-16 15:51:00,72.0,57.5,30.25,SW,225,1.0,9.0,61,0.00,,,0.00,Rainwise IP-100,2013-04-16 19:51:00,
2013-04-16 15:56:00,72.0,57.0,30.24,ENE,67,3.0,9.0,59,0.00,,,0.00,Rainwise IP-100,2013-04-16 19:56:00,
2013-04-16 16:01:00,73.0,57.5,30.25,South,180,4.0,7.0,58,0.00,,,0.00,Rainwise IP-100,2013-04-16 20:01:00,
2013-04-16 16:06:00,73.0,57.5,30.24,SE,135,7.0,10.0,58,0.00,,,0.00,Rainwise IP-100,2013-04-16 20:06:00,
2013-04-16 16:11:00,72.0,56.5,30.24,East,90,3.0,9.0,58,0.00,,,0.00,Rainwise IP-100,2013-04-16 20:11:00,
2013-04-16 16:16:00,72.0,57.5,30.24,South,180,2.0,9.0,61,0.00,,,0.00,Rainwise IP-100,2013-04-16 20:16:00,
2013-04-16 16:21:00,72.0,57.0,30.24,SSE,157,3.0,8.0,60,0.00,,,0.00,Rainwise IP-100,2013-04-16 20:21:00,
2013-04-16 16:26:00,72.0,57.0,30.24,East,90,3.0,10.0,59,0.00,,,0.00,Rainwise IP-100,2013-04-16 20:26:00,
2013-04-16 16:31:00,71.0,56.5,30.24,South,180,2.0,15.0,61,0.00,,,0.00,Rainwise IP-100,2013-04-16 20:31:00,
2013-04-16 16:36:00,71.0,56.5,30.24,SE,135,5.0,9.0,61,0.00,,,0.00,Rainwise IP-100,2013-04-16 20:36:00,
2013-04-16 16:41:00,71.0,56.5,30.24,East,90,4.0,9.0,61,0.00,,,0.00,Rainwise IP-100,2013-04-16 20:41:00,
2013-04-16 16:46:00,71.0,57.5,30.24,ESE,112,1.0,7.0,63,0.00,,,0.00,Rainwise IP-100,2013-04-16 20:46:00,
2013-04-16 16:51:00,71.0,57.5,30.24,SE,135,2.0,9.0,63,0.00,,,0.00,Rainwise IP-100,2013-04-16 20:51:00,
2013-04-16 16:56:00,70.0,57.0,30.24,SE,135,6.0,9.0,63,0.00,,,0.00,Rainwise IP-100,2013-04-16 20:56:00,
2013-04-16 17:01:00,70.0,57.5,30.24,ENE,67,7.0,9.0,65,0.00,,,0.00,Rainwise IP-100,2013-04-16 21:01:00,
2013-04-16 17:06:00,70.0,57.0,30.23,SE,135,3.0,9.0,63,0.00,,,0.00,Rainwise IP-100,2013-04-16 21:06:00,
2013-04-16 17:11:00,70.0,57.0,30.24,SSE,157,7.0,10.0,64,0.00,,,0.00,Rainwise IP-100,2013-04-16 21:11:00,
2013-04-16 17:16:00,70.0,57.0,30.23,ESE,112,6.0,9.0,64,0.00,,,0.00,Rainwise IP-100,2013-04-16 21:16:00,
2013-04-16 17:21:00,70.0,57.5,30.24,SE,135,5.0,8.0,65,0.00,,,0.00,Rainwise IP-100,2013-04-16 21:21:00,
2013-04-16 17:26:00,70.0,57.5,30.23,ENE,67,1.0,9.0,65,0.00,,,0.00,Rainwise IP-100,2013-04-16 21:26:00,
2013-04-16 17:31:00,70.0,58.0,30.23,SSE,157,5.0,9.0,66,0.00,,,0.00,Rainwise IP-100,2013-04-16 21:31:00,
2013-04-16 17:36:00,70.0,57.5,30.23,ENE,67,2.0,13.0,65,0.00,,,0.00,Rainwise IP-100,2013-04-16 21:36:00,
2013-04-16 17:41:00,70.0,57.0,30.23,ESE,112,3.0,9.0,64,0.00,,,0.00,Rainwise IP-100,2013-04-16 21:41:00,
2013-04-16 17:46:00,70.0,57.0,30.23,SSE,157,6.0,9.0,63,0.00,,,0.00,Rainwise IP-100,2013-04-16 21:46:00,
2013-04-16 17:51:00,71.0,58.0,30.23,SE,135,3.0,7.0,64,0.00,,,0.00,Rainwise IP-100,2013-04-16 21:51:00,
2013-04-16 17:56:00,71.0,57.5,30.22,ESE,112,7.0,11.0,63,0.00,,,0.00,Rainwise IP-100,2013-04-16 21:56:00,
2013-04-16 18:01:00,71.0,57.5,30.22,SE,135,5.0,9.0,63,0.00,,,0.00,Rainwise IP-100,2013-04-16 22:01:00,
2013-04-16 18:06:00,70.0,57.0,30.22,ESE,112,5.0,12.0,64,0.00,,,0.00,Rainwise IP-100,2013-04-16 22:06:00,
2013-04-16 18:11:00,70.0,57.0,30.23,SSW,202,5.0,7.0,64,0.00,,,0.00,Rainwise IP-100,2013-04-16 22:11:00,
2013-04-16 18:16:00,70.0,57.0,30.23,SSE,157,6.0,12.0,64,0.00,,,0.00,Rainwise IP-100,2013-04-16 22:16:00,
2013-04-16 18:21:00,70.0,57.5,30.23,ESE,112,5.0,7.0,65,0.00,,,0.00,Rainwise IP-100,2013-04-16 22:21:00,
2013-04-16 18:23:00,69.0,57.0,30.23,WSW,247,0.0,9.0,66,0.00,,,0.00,Rainwise IP-100,2013-04-16 22:23:00,
2013-04-16 18:26:00,69.0,57.0,30.23,SW,225,5.0,9.0,66,0.00,,,0.00,Rainwise IP-100,2013-04-16 22:26:00,
2013-04-16 18:31:00,69.0,57.5,30.22,ESE,112,1.0,10.0,67,0.00,,,0.00,Rainwise IP-100,2013-04-16 22:31:00,
2013-04-16 18:36:00,68.0,57.0,30.23,ESE,112,6.0,9.0,68,0.00,,,0.00,Rainwise IP-100,2013-04-16 22:36:00,
2013-04-16 18:41:00,68.0,57.5,30.23,ENE,67,3.0,10.0,69,0.00,,,0.00,Rainwise IP-100,2013-04-16 22:41:00,
2013-04-16 18:46:00,68.0,57.5,30.23,SSE,157,4.0,9.0,70,0.00,,,0.00,Rainwise IP-100,2013-04-16 22:46:00,
2013-04-16 18:51:00,67.0,56.5,30.22,ESE,112,5.0,6.0,69,0.00,,,0.00,Rainwise IP-100,2013-04-16 22:51:00,
2013-04-16 18:56:00,67.0,57.0,30.22,ESE,112,6.0,10.0,70,0.00,,,0.00,Rainwise IP-100,2013-04-16 22:56:00,
2013-04-16 19:01:00,67.0,57.0,30.22,SE,135,6.0,7.0,70,0.00,,,0.00,Rainwise IP-100,2013-04-16 23:01:00,
2013-04-16 19:06:00,67.0,57.5,30.23,ESE,112,6.0,10.0,71,0.00,,,0.00,Rainwise IP-100,2013-04-16 23:06:00,
2013-04-16 19:11:00,66.0,56.0,30.23,SE,135,4.0,10.0,71,0.00,,,0.00,Rainwise IP-100,2013-04-16 23:11:00,
2013-04-16 19:16:00,66.0,56.5,30.23,ESE,112,3.0,8.0,72,0.00,,,0.00,Rainwise IP-100,2013-04-16 23:16:00,
2013-04-16 19:21:00,66.0,56.5,30.23,South,180,2.0,6.0,72,0.00,,,0.00,Rainwise IP-100,2013-04-16 23:21:00,
2013-04-16 19:26:00,65.0,56.5,30.23,SE,135,7.0,9.0,74,0.00,,,0.00,Rainwise IP-100,2013-04-16 23:26:00,
2013-04-16 19:31:00,65.0,56.5,30.23,SW,225,1.0,9.0,74,0.00,,,0.00,Rainwise IP-100,2013-04-16 23:31:00,
2013-04-16 19:36:00,65.0,57.0,30.23,SSE,157,2.0,8.0,76,0.00,,,0.00,Rainwise IP-100,2013-04-16 23:36:00,
2013-04-16 19:38:00,65.0,57.0,30.23,SE,135,2.0,8.0,76,0.00,,,0.00,Rainwise IP-100,2013-04-16 23:38:00,
2013-04-16 19:41:00,64.0,56.5,30.23,SSE,157,7.0,7.0,77,0.00,,,0.00,Rainwise IP-100,2013-04-16 23:41:00,
2013-04-16 19:46:00,64.0,57.0,30.23,South,180,3.0,9.0,78,0.00,,,0.00,Rainwise IP-100,2013-04-16 23:46:00,
2013-04-16 19:51:00,64.0,57.0,30.23,NNW,337,2.0,7.0,79,0.00,,,0.00,Rainwise IP-100,2013-04-16 23:51:00,
2013-04-16 19:56:00,64.0,57.0,30.23,SE,135,5.0,9.0,79,0.00,,,0.00,Rainwise IP-100,2013-04-16 23:56:00,
2013-04-16 20:01:00,64.0,58.0,30.23,SSE,157,6.0,9.0,81,0.00,,,0.00,Rainwise IP-100,2013-04-17 00:01:00,
2013-04-16 20:06:00,63.0,56.5,30.23,ESE,112,3.0,9.0,80,0.00,,,0.00,Rainwise IP-100,2013-04-17 00:06:00,
2013-04-16 20:11:00,63.0,56.5,30.24,East,90,2.0,10.0,80,0.00,,,0.00,Rainwise IP-100,2013-04-17 00:11:00,
2013-04-16 20:16:00,63.0,57.0,30.24,SSE,157,6.0,9.0,81,0.00,,,0.00,Rainwise IP-100,2013-04-17 00:16:00,
2013-04-16 20:21:00,63.0,57.5,30.24,SSE,157,3.0,12.0,82,0.00,,,0.00,Rainwise IP-100,2013-04-17 00:21:00,
2013-04-16 20:26:00,63.0,57.5,30.24,SE,135,4.0,7.0,82,0.00,,,0.00,Rainwise IP-100,2013-04-17 00:26:00,
2013-04-16 20:31:00,63.0,58.0,30.24,SSE,157,2.0,7.0,84,0.00,,,0.00,Rainwise IP-100,2013-04-17 00:31:00,
2013-04-16 20:36:00,62.0,57.0,30.24,ESE,112,5.0,11.0,84,0.00,,,0.00,Rainwise IP-100,2013-04-17 00:36:00,
2013-04-16 20:41:00,62.0,57.0,30.24,South,180,3.0,8.0,84,0.00,,,0.00,Rainwise IP-100,2013-04-17 00:41:00,
2013-04-16 20:46:00,62.0,57.5,30.24,South,180,3.0,6.0,85,0.00,,,0.00,Rainwise IP-100,2013-04-17 00:46:00,
2013-04-16 20:51:00,62.0,57.5,30.24,SSW,202,3.0,7.0,85,0.00,,,0.00,Rainwise IP-100,2013-04-17 00:51:00,
2013-04-16 20:56:00,62.0,57.5,30.25,SE,135,3.0,8.0,85,0.00,,,0.00,Rainwise IP-100,2013-04-17 00:56:00,
2013-04-16 21:01:00,62.0,57.5,30.24,SSW,202,0.0,7.0,85,0.00,,,0.00,Rainwise IP-100,2013-04-17 01:01:00,
2013-04-16 21:06:00,62.0,58.0,30.25,SW,225,0.0,6.0,87,0.00,,,0.00,Rainwise IP-100,2013-04-17 01:06:00,
2013-04-16 21:11:00,62.0,58.0,30.25,SSE,157,2.0,6.0,87,0.00,,,0.00,Rainwise IP-100,2013-04-17 01:11:00,
2013-04-16 21:16:00,62.0,58.0,30.25,South,180,1.0,6.0,87,0.00,,,0.00,Rainwise IP-100,2013-04-17 01:16:00,
2013-04-16 21:21:00,62.0,58.0,30.25,SSE,157,3.0,6.0,87,0.00,,,0.00,Rainwise IP-100,2013-04-17 01:21:00,
2013-04-16 21:26:00,62.0,58.0,30.25,SE,135,3.0,7.0,88,0.00,,,0.00,Rainwise IP-100,2013-04-17 01:26:00,
2013-04-16 21:31:00,61.0,57.5,30.25,SSW,202,2.0,7.0,88,0.00,,,0.00,Rainwise IP-100,2013-04-17 01:31:00,
2013-04-16 21:36:00,61.0,57.5,30.25,SE,135,2.0,9.0,89,0.00,,,0.00,Rainwise IP-100,2013-04-17 01:36:00,
2013-04-16 21:39:00,61.0,57.5,30.25,SE,135,2.0,9.0,89,0.00,,,0.00,Rainwise IP-100,2013-04-17 01:39:00,
2013-04-16 21:41:00,61.0,57.5,30.25,SE,135,2.0,6.0,89,0.00,,,0.00,Rainwise IP-100,2013-04-17 01:41:00,
2013-04-16 21:46:00,61.0,57.5,30.25,SE,135,3.0,7.0,89,0.00,,,0.00,Rainwise IP-100,2013-04-17 01:46:00,
2013-04-16 21:51:00,61.0,57.5,30.25,SSW,202,3.0,7.0,89,0.00,,,0.00,Rainwise IP-100,2013-04-17 01:51:00,
2013-04-16 21:56:00,61.0,58.0,30.25,SE,135,2.0,6.0,90,0.00,,,0.00,Rainwise IP-100,2013-04-17 01:56:00,
2013-04-16 22:01:00,61.0,58.0,30.25,SE,135,6.0,7.0,90,0.00,,,0.00,Rainwise IP-100,2013-04-17 02:01:00,
2013-04-16 22:06:00,61.0,58.0,30.25,SSE,157,4.0,6.0,90,0.00,,,0.00,Rainwise IP-100,2013-04-17 02:06:00,
2013-04-16 22:11:00,61.0,58.0,30.25,SSW,202,0.0,6.0,90,0.00,,,0.00,Rainwise IP-100,2013-04-17 02:11:00,
2013-04-16 22:16:00,61.0,58.0,30.24,SE,135,1.0,8.0,90,0.00,,,0.00,Rainwise IP-100,2013-04-17 02:16:00,
2013-04-16 22:21:00,61.0,58.0,30.24,South,180,1.0,9.0,90,0.00,,,0.00,Rainwise IP-100,2013-04-17 02:21:00,
2013-04-16 22:26:00,61.0,58.0,30.24,SE,135,4.0,7.0,90,0.00,,,0.00,Rainwise IP-100,2013-04-17 02:26:00,
2013-04-16 22:31:00,61.0,58.0,30.23,SW,225,6.0,7.0,90,0.00,,,0.00,Rainwise IP-100,2013-04-17 02:31:00,
2013-04-16 22:36:00,61.0,58.0,30.24,SSE,157,4.0,7.0,90,0.00,,,0.00,Rainwise IP-100,2013-04-17 02:36:00,
2013-04-16 22:41:00,61.0,58.0,30.23,SE,135,3.0,12.0,90,0.00,,,0.00,Rainwise IP-100,2013-04-17 02:41:00,
2013-04-16 22:46:00,61.0,58.0,30.23,SE,135,6.0,7.0,90,0.00,,,0.00,Rainwise IP-100,2013-04-17 02:46:00,
2013-04-16 22:51:00,61.0,58.0,30.23,WSW,247,2.0,9.0,90,0.00,,,0.00,Rainwise IP-100,2013-04-17 02:51:00,
2013-04-16 22:56:00,61.0,58.0,30.23,ESE,112,3.0,9.0,90,0.00,,,0.00,Rainwise IP-100,2013-04-17 02:56:00,
2013-04-16 23:01:00,60.0,57.0,30.23,ESE,112,6.0,7.0,90,0.00,,,0.00,Rainwise IP-100,2013-04-17 03:01:00,
2013-04-16 23:06:00,60.0,57.0,30.23,SSE,157,5.0,7.0,90,0.00,,,0.00,Rainwise IP-100,2013-04-17 03:06:00,
2013-04-16 23:11:00,60.0,57.0,30.23,SSE,157,5.0,7.0,90,0.00,,,0.00,Rainwise IP-100,2013-04-17 03:11:00,
2013-04-16 23:16:00,60.0,57.0,30.23,SE,135,2.0,7.0,91,0.00,,,0.00,Rainwise IP-100,2013-04-17 03:16:00,
2013-04-16 23:21:00,60.0,57.0,30.24,SSW,202,1.0,6.0,91,0.00,,,0.00,Rainwise IP-100,2013-04-17 03:21:00,
2013-04-16 23:26:00,60.0,57.5,30.23,SSE,157,1.0,7.0,92,0.00,,,0.00,Rainwise IP-100,2013-04-17 03:26:00,
2013-04-16 23:31:00,60.0,57.5,30.24,SW,225,0.0,6.0,92,0.00,,,0.00,Rainwise IP-100,2013-04-17 03:31:00,
2013-04-16 23:36:00,59.0,57.0,30.24,South,180,2.0,3.0,93,0.00,,,0.00,Rainwise IP-100,2013-04-17 03:36:00,
2013-04-16 23:40:00,59.0,57.0,30.24,SSE,157,0.0,3.0,94,0.00,,,0.00,Rainwise IP-100,2013-04-17 03:40:00,
2013-04-16 23:42:00,59.0,57.0,30.24,SSE,157,0.0,3.0,94,0.00,,,0.00,Rainwise IP-100,2013-04-17 03:42:00,
2013-04-16 23:43:00,59.0,57.0,30.24,SSE,157,0.0,3.0,94,0.00,,,0.00,Rainwise IP-100,2013-04-17 03:43:00,
2013-04-16 23:45:00,59.0,57.0,30.24,South,180,1.0,1.0,94,0.00,,,0.00,Rainwise IP-100,2013-04-17 03:45:00,
2013-04-16 23:47:00,59.0,57.0,30.24,South,180,0.0,4.0,94,0.00,,,0.00,Rainwise IP-100,2013-04-17 03:47:00,
2013-04-16 23:48:00,59.0,57.0,30.24,South,180,0.0,4.0,94,0.00,,,0.00,Rainwise IP-100,2013-04-17 03:48:00,
2013-04-16 23:53:00,59.0,57.0,30.24,SSE,157,1.0,4.0,94,0.00,,,0.00,Rainwise IP-100,2013-04-17 03:53:00,
2013-04-16 23:58:00,59.0,57.5,30.24,SSE,157,1.0,5.0,95,0.00,,,0.00,Rainwise IP-100,2013-04-17 03:58:00,